Cross City, FL

11:47 PM EDT on March 28, 2017 (GMT -0400)
Cross City

Weather History for KCTY - April, 2012

Change the Weather History Date:

Monday, April 30, 2012

  Actual Average Record
Temperature  
Mean Temperature 75 °F 70 °F  
Max Temperature 93 °F 83 °F 93 °F (2012)
Min Temperature 57 °F 57 °F 0 °F (2008)
Degree Days  
Heating Degree Days 0 0  
Month to date heating degree days 50  
Since 1 July heating degree days 1303  
Cooling Degree Days 10 5  
Month to date cooling degree days 108  
Year to date cooling degree days 182  
Growing Degree Days 25 (Base 50)    
Moisture  
Dew Point 62 °F    
Average Humidity 65    
Maximum Humidity 97    
Minimum Humidity 29    
Precipitation  
Precipitation 0.00 in 0.05 in 1.07 in (2005)
Month to date precipitation 2.96  
Year to date precipitation 14.48  
Sea Level Pressure  
Sea Level Pressure 30.10 in    
Wind  
Wind Speed 3 mph (East)    
Max Wind Speed 10 mph    
Max Gust Speed 20 mph    
T = Trace of Precipitation, MM = Missing Value Source: NWS Daily Summary

Daily Weather History Graph

Daily Weather History Graph

Search for Another Location

Airport or City:

Trip Planner

Search our weather history database for the weather conditions in past years. The results will help you decide how hot, cold, wet, or windy it might be!

Date:

Astronomy

Apr. 30, 2012 Rise Set
Actual Time 6:50 AM EDT 8:08 PM EDT
Civil Twilight 6:25 AM EDT 8:34 PM EDT
Nautical Twilight 5:55 AM EDT 9:04 PM EDT
Astronomical Twilight 5:24 AM EDT 9:35 PM EDT
Moon 2:30 PM EDT (4/30) 2:46 AM EDT (4/30)
Length of Visible Light 14h 08m
Length of Day
13h 18m
Waxing Gibbous, 63% of the Moon is Illuminated
Apr 30
Waxing Gibbous
May 5
Full
May 12
Last Quarter
May 20
New
May 28
First Quarter

Hourly Weather History & Observations

Time (EDT) Temp. Heat Index Dew Point Humidity Pressure Visibility Wind Dir Wind Speed Gust Speed Precip Events Conditions
12:53 AM 64.9 °F - 62.1 °F 90% 30.12 in - Calm Calm - N/A   Unknown
1:53 AM 63.0 °F - 61.0 °F 93% 30.12 in - Calm Calm - N/A   Unknown
2:53 AM 61.0 °F - 59.0 °F 93% 30.10 in - Calm Calm - N/A   Unknown
3:53 AM 60.1 °F - 57.9 °F 93% 30.10 in - Calm Calm - N/A   Unknown
4:53 AM 60.1 °F - 57.9 °F 93% 30.10 in - Calm Calm - N/A   Unknown
5:53 AM 57.9 °F - 55.9 °F 93% 30.10 in - Calm Calm - N/A   Unknown
6:53 AM 57.9 °F - 55.9 °F 93% 30.10 in - Calm Calm - N/A   Unknown
7:53 AM 64.9 °F - 64.0 °F 97% 30.13 in - Calm Calm - N/A   Unknown
8:53 AM 68.0 °F - 66.9 °F 96% 30.14 in - East 3.5 mph - N/A   Unknown
9:53 AM 77.0 °F - 66.9 °F 71% 30.15 in - Variable 6.9 mph - N/A   Unknown
10:53 AM 82.0 °F 84.5 °F 66.9 °F 60% 30.14 in - Variable 6.9 mph - N/A   Unknown
11:53 AM 84.9 °F 86.6 °F 64.9 °F 51% 30.14 in - NE 6.9 mph - N/A   Unknown
12:53 PM 87.1 °F 88.9 °F 64.9 °F 48% 30.12 in - East 8.1 mph - N/A   Unknown
1:53 PM 90.0 °F 90.3 °F 62.1 °F 39% 30.10 in - Variable 6.9 mph - N/A   Unknown
2:53 PM 90.0 °F 90.3 °F 62.1 °F 39% 30.07 in - East 9.2 mph 19.6 mph N/A   Unknown
3:53 PM 91.9 °F 91.8 °F 61.0 °F 35% 30.05 in - Variable 6.9 mph - N/A   Unknown
4:53 PM 91.9 °F 91.2 °F 59.0 °F 33% 30.03 in - East 10.4 mph 19.6 mph N/A   Unknown
5:53 PM 91.0 °F 90.5 °F 60.1 °F 35% 30.03 in - SE 8.1 mph - N/A   Unknown
6:53 PM 88.0 °F 87.1 °F 59.0 °F 37% 30.04 in - Variable 4.6 mph 17.3 mph N/A   Unknown
7:53 PM 84.9 °F 84.2 °F 57.9 °F 40% 30.05 in - East 6.9 mph - N/A   Unknown
8:53 PM 82.0 °F 82.7 °F 61.0 °F 49% 30.07 in - ESE 6.9 mph - N/A   Unknown
9:53 PM 79.0 °F - 63.0 °F 58% 30.09 in - East 5.8 mph - N/A   Unknown
10:53 PM 77.0 °F - 64.9 °F 66% 30.11 in - Variable 4.6 mph - N/A   Unknown
11:53 PM 75.0 °F - 66.0 °F 73% 30.12 in - East 5.8 mph - N/A   Unknown